���t,����,�O�C���x,�����t���O,�O�C���Ύ��x,�����t���O,���ԉ��x,�����t���O,���ԑ��Ύ��x,�����t���O,�g�C������,�����t���O,�L�b�`�����x,�����t���O,��󒲎����x,�����t���O
2004/10/1,0:00,18.4 ,0,93.0 ,0,23.4 ,0,76.2 ,0,24.7 ,0,23.2 ,0,23.4 ,0
2004/10/1,0:15,18.4 ,0,92.0 ,0,23.3 ,0,77.1 ,0,24.6 ,0,23.1 ,0,23.5 ,0
2004/10/1,0:30,18.2 ,0,93.0 ,0,23.2 ,0,77.2 ,0,24.6 ,0,22.9 ,0,23.5 ,0
2004/10/1,0:45,17.9 ,0,95.0 ,0,23.1 ,0,77.4 ,0,24.6 ,0,22.9 ,0,22.6 ,0
2004/10/1,1:00,17.8 ,0,96.0 ,0,22.9 ,0,77.6 ,0,24.6 ,0,23.0 ,0,22.6 ,0
2004/10/1,1:15,17.6 ,0,97.0 ,0,22.8 ,0,77.9 ,0,24.6 ,0,22.9 ,0,22.3 ,0
2004/10/1,1:30,17.4 ,0,98.0 ,0,22.6 ,0,78.1 ,0,24.6 ,0,22.7 ,0,22.1 ,0
2004/10/1,1:45,17.5 ,0,98.0 ,0,22.5 ,0,78.2 ,0,24.6 ,0,22.6 ,0,21.9 ,0
2004/10/1,2:00,17.4 ,0,97.0 ,0,22.3 ,0,78.0 ,0,24.6 ,0,22.5 ,0,21.5 ,0
2004/10/1,2:15,17.4 ,0,98.0 ,0,22.2 ,0,78.3 ,0,24.6 ,0,22.4 ,0,21.5 ,0
2004/10/1,2:30,17.2 ,0,99.0 ,0,22.1 ,0,78.6 ,0,24.6 ,0,22.2 ,0,21.2 ,0
2004/10/1,2:45,17.1 ,0,99.0 ,0,21.9 ,0,78.9 ,0,24.6 ,0,22.1 ,0,21.1 ,0
2004/10/1,3:00,17.1 ,0,99.0 ,0,21.8 ,0,79.2 ,0,24.6 ,0,22.0 ,0,20.9 ,0
2004/10/1,3:15,17.1 ,0,99.0 ,0,21.7 ,0,79.5 ,0,24.6 ,0,21.9 ,0,20.8 ,0
2004/10/1,3:30,17.1 ,0,99.0 ,0,21.6 ,0,79.7 ,0,24.6 ,0,21.8 ,0,20.8 ,0
2004/10/1,3:45,16.9 ,0,99.0 ,0,21.5 ,0,80.0 ,0,24.6 ,0,21.7 ,0,20.5 ,0
2004/10/1,4:00,16.8 ,0,99.0 ,0,21.4 ,0,80.2 ,0,24.6 ,0,21.6 ,0,20.6 ,0
2004/10/1,4:15,16.7 ,0,99.0 ,0,21.3 ,0,80.4 ,0,24.6 ,0,21.5 ,0,20.6 ,0
2004/10/1,4:30,16.6 ,0,99.0 ,0,21.1 ,0,80.8 ,0,24.6 ,0,21.4 ,0,20.8 ,0
2004/10/1,4:45,16.4 ,0,99.0 ,0,21.0 ,0,81.5 ,0,24.6 ,0,21.3 ,0,20.5 ,0
2004/10/1,5:00,16.3 ,0,99.0 ,0,20.9 ,0,81.7 ,0,24.5 ,0,21.2 ,0,20.2 ,0
2004/10/1,5:15,16.4 ,0,99.0 ,0,20.9 ,0,81.8 ,0,24.5 ,0,21.2 ,0,20.0 ,0
2004/10/1,5:30,16.7 ,0,99.0 ,0,20.8 ,0,81.9 ,0,24.5 ,0,21.1 ,0,19.9 ,0
2004/10/1,5:45,17.1 ,0,99.0 ,0,20.7 ,0,82.0 ,0,24.5 ,0,21.0 ,0,19.9 ,0
2004/10/1,6:00,17.8 ,0,99.0 ,0,20.5 ,0,82.1 ,0,24.5 ,0,20.9 ,0,19.8 ,0
2004/10/1,6:15,18.3 ,0,99.0 ,0,20.4 ,0,82.2 ,0,24.5 ,0,20.9 ,0,19.8 ,0
2004/10/1,6:30,19.1 ,0,92.0 ,0,20.3 ,0,82.3 ,0,24.5 ,0,20.8 ,0,19.8 ,0
2004/10/1,6:45,20.3 ,0,84.0 ,0,20.3 ,0,82.5 ,0,24.4 ,0,20.7 ,0,19.8 ,0
2004/10/1,7:00,20.8 ,0,79.0 ,0,20.4 ,0,83.0 ,0,24.4 ,0,20.6 ,0,19.4 ,0
2004/10/1,7:15,21.3 ,0,74.0 ,0,20.8 ,0,83.5 ,0,24.4 ,0,20.5 ,0,19.4 ,0
2004/10/1,7:30,22.0 ,0,71.0 ,0,21.6 ,0,83.5 ,0,24.4 ,0,20.4 ,0,19.4 ,0
2004/10/1,7:45,22.9 ,0,66.0 ,0,22.4 ,0,78.0 ,0,24.3 ,0,20.4 ,0,19.4 ,0
2004/10/1,8:00,23.5 ,0,65.0 ,0,23.5 ,0,73.6 ,0,24.3 ,0,20.5 ,0,19.8 ,0
2004/10/1,8:15,24.3 ,0,61.0 ,0,24.7 ,0,68.0 ,0,24.3 ,0,20.6 ,0,20.1 ,0
2004/10/1,8:30,25.3 ,0,56.0 ,0,25.9 ,0,63.9 ,0,24.3 ,0,20.8 ,0,20.4 ,0
2004/10/1,8:45,26.2 ,0,51.0 ,0,27.2 ,0,59.1 ,0,24.4 ,0,21.0 ,0,20.5 ,0
2004/10/1,9:00,27.0 ,0,46.0 ,0,35.6 ,2,36.0 ,0,24.5 ,0,21.3 ,0,21.0 ,0
2004/10/1,9:15,27.5 ,0,47.0 ,0,39.1 ,2,30.0 ,0,24.8 ,0,21.5 ,0,21.6 ,0
2004/10/1,9:30,27.8 ,0,46.0 ,0,36.8 ,2,34.1 ,0,24.7 ,0,21.8 ,0,22.1 ,0
2004/10/1,9:45,28.1 ,0,47.0 ,0,33.8 ,2,39.9 ,0,24.7 ,0,22.0 ,0,22.2 ,0
2004/10/1,10:00,28.2 ,0,46.0 ,0,32.1 ,0,44.1 ,0,24.7 ,0,22.3 ,0,22.3 ,0
2004/10/1,10:15,28.5 ,0,45.0 ,0,31.3 ,0,46.5 ,0,24.6 ,0,22.6 ,0,22.5 ,0
2004/10/1,10:30,28.6 ,0,44.0 ,0,31.0 ,0,47.6 ,0,24.5 ,0,22.8 ,0,22.9 ,0
2004/10/1,10:45,28.8 ,0,45.0 ,0,30.5 ,0,49.1 ,0,24.5 ,0,23.1 ,0,23.4 ,0
2004/10/1,11:00,28.8 ,0,45.0 ,0,30.2 ,0,50.0 ,0,24.4 ,0,23.4 ,0,23.7 ,0
2004/10/1,11:15,28.5 ,0,43.0 ,0,30.0 ,0,51.1 ,0,24.4 ,0,23.6 ,0,24.0 ,0
2004/10/1,11:30,28.5 ,0,48.0 ,0,29.7 ,0,52.1 ,0,24.4 ,0,23.8 ,0,24.2 ,0
2004/10/1,11:45,28.5 ,0,46.0 ,0,29.5 ,0,53.2 ,0,24.4 ,0,24.1 ,0,24.4 ,0
2004/10/1,12:00,27.7 ,0,51.0 ,0,29.4 ,0,54.1 ,0,24.4 ,0,24.3 ,0,24.6 ,0
2004/10/1,12:15,27.5 ,0,53.0 ,0,29.4 ,0,54.8 ,0,24.4 ,0,24.5 ,0,24.8 ,0
2004/10/1,12:30,27.3 ,0,56.0 ,0,29.4 ,0,54.8 ,0,24.4 ,0,24.7 ,0,25.0 ,0
2004/10/1,12:45,27.0 ,0,59.0 ,0,29.4 ,0,55.4 ,0,24.3 ,0,24.9 ,0,25.2 ,0
2004/10/1,13:00,26.6 ,0,56.0 ,0,29.5 ,0,55.2 ,0,24.3 ,0,25.1 ,0,25.5 ,0
2004/10/1,13:15,27.6 ,0,58.0 ,0,29.3 ,0,56.2 ,0,24.3 ,0,25.4 ,0,25.8 ,0
2004/10/1,13:30,27.9 ,0,58.0 ,0,29.2 ,0,56.8 ,0,24.3 ,0,25.7 ,0,26.1 ,0
2004/10/1,13:45,27.3 ,0,59.0 ,0,29.2 ,0,57.5 ,0,24.3 ,0,26.0 ,0,26.3 ,0
2004/10/1,14:00,27.0 ,0,60.0 ,0,29.0 ,0,58.2 ,0,24.4 ,0,26.4 ,0,26.5 ,0
2004/10/1,14:15,27.1 ,0,61.0 ,0,28.8 ,0,59.2 ,0,24.4 ,0,26.5 ,0,26.6 ,0
2004/10/1,14:30,27.0 ,0,62.0 ,0,29.0 ,0,58.7 ,0,24.4 ,0,26.6 ,0,26.6 ,0
2004/10/1,14:45,26.8 ,0,62.0 ,0,29.1 ,0,58.7 ,0,24.4 ,0,26.7 ,0,26.6 ,0
2004/10/1,15:00,26.5 ,0,63.0 ,0,29.3 ,0,58.5 ,0,24.4 ,0,26.7 ,0,26.5 ,0
2004/10/1,15:15,26.4 ,0,65.0 ,0,29.1 ,0,59.7 ,0,24.4 ,0,26.7 ,0,26.6 ,0
2004/10/1,15:30,26.0 ,0,65.0 ,0,29.1 ,0,59.7 ,0,24.4 ,0,26.9 ,0,26.8 ,0
2004/10/1,15:45,25.6 ,0,66.0 ,0,29.1 ,0,60.1 ,0,24.4 ,0,27.1 ,0,27.0 ,0
2004/10/1,16:00,25.2 ,0,66.0 ,0,29.0 ,0,60.8 ,0,24.4 ,0,27.1 ,0,27.0 ,0
2004/10/1,16:15,24.9 ,0,65.0 ,0,29.0 ,0,61.5 ,0,24.5 ,0,27.2 ,0,27.1 ,0
2004/10/1,16:30,24.5 ,0,67.0 ,0,28.9 ,0,62.1 ,0,24.5 ,0,27.2 ,0,27.2 ,0
2004/10/1,16:45,24.1 ,0,70.0 ,0,28.9 ,0,62.7 ,0,24.5 ,0,27.2 ,0,27.2 ,0
2004/10/1,17:00,23.7 ,0,72.0 ,0,28.8 ,0,63.1 ,0,24.5 ,0,27.2 ,0,27.2 ,0
2004/10/1,17:15,23.5 ,0,73.0 ,0,28.6 ,0,63.5 ,0,24.5 ,0,27.1 ,0,27.2 ,0
2004/10/1,17:30,23.5 ,0,74.0 ,0,28.4 ,0,65.0 ,0,24.6 ,0,27.1 ,0,27.1 ,0
2004/10/1,17:45,23.3 ,0,76.0 ,0,28.0 ,0,65.9 ,0,24.6 ,0,27.1 ,0,27.0 ,0
2004/10/1,18:00,23.1 ,0,78.0 ,0,27.6 ,0,65.9 ,0,24.6 ,0,27.0 ,0,26.8 ,0
2004/10/1,18:15,22.9 ,0,78.0 ,0,27.2 ,0,65.7 ,0,24.6 ,0,26.8 ,0,26.6 ,0
2004/10/1,18:30,22.8 ,0,80.0 ,0,26.8 ,0,65.7 ,0,24.7 ,0,26.7 ,0,26.4 ,0
2004/10/1,18:45,22.6 ,0,82.0 ,0,26.6 ,0,66.2 ,0,25.3 ,0,26.4 ,0,26.4 ,0
2004/10/1,19:00,22.6 ,0,82.0 ,0,26.4 ,0,66.9 ,0,25.3 ,0,26.1 ,0,26.1 ,0
2004/10/1,19:15,22.5 ,0,82.0 ,0,28.1 ,0,60.0 ,0,25.3 ,0,25.9 ,0,26.0 ,0
2004/10/1,19:30,22.4 ,0,82.0 ,0,27.6 ,0,60.7 ,0,25.4 ,0,25.6 ,0,25.8 ,0
2004/10/1,19:45,22.3 ,0,82.0 ,0,27.4 ,0,62.5 ,0,25.4 ,0,25.5 ,0,25.8 ,0
2004/10/1,20:00,22.2 ,0,82.0 ,0,27.1 ,0,63.8 ,0,25.4 ,0,25.4 ,0,25.3 ,0
2004/10/1,20:15,22.0 ,0,84.0 ,0,26.9 ,0,65.2 ,0,25.4 ,0,25.6 ,0,24.5 ,0
2004/10/1,20:30,21.8 ,0,85.0 ,0,26.7 ,0,66.4 ,0,25.4 ,0,25.6 ,0,24.6 ,0
2004/10/1,20:45,21.7 ,0,86.0 ,0,26.7 ,0,67.1 ,0,25.4 ,0,25.4 ,0,24.1 ,0
2004/10/1,21:00,21.5 ,0,87.0 ,0,26.4 ,0,67.4 ,0,25.4 ,0,25.3 ,0,24.4 ,0
2004/10/1,21:15,21.4 ,0,88.0 ,0,26.3 ,0,68.2 ,0,25.5 ,0,25.2 ,0,24.6 ,0
2004/10/1,21:30,21.3 ,0,88.0 ,0,26.1 ,0,68.8 ,0,25.5 ,0,25.1 ,0,24.6 ,0
2004/10/1,21:45,21.0 ,0,89.0 ,0,26.0 ,0,69.8 ,0,25.5 ,0,25.0 ,0,24.5 ,0
2004/10/1,22:00,21.1 ,0,89.0 ,0,25.8 ,0,70.4 ,0,25.5 ,0,24.9 ,0,24.4 ,0
2004/10/1,22:15,20.9 ,0,90.0 ,0,25.6 ,0,70.9 ,0,24.8 ,0,24.8 ,0,23.9 ,0
2004/10/1,22:30,20.6 ,0,91.0 ,0,25.5 ,0,71.3 ,0,24.8 ,0,24.7 ,0,23.4 ,0
2004/10/1,22:45,20.5 ,0,92.0 ,0,25.4 ,0,71.7 ,0,24.8 ,0,24.6 ,0,23.0 ,0
2004/10/1,23:00,20.6 ,0,91.0 ,0,25.2 ,0,72.2 ,0,24.8 ,0,24.5 ,0,22.8 ,0
2004/10/1,23:15,20.4 ,0,91.0 ,0,25.3 ,0,73.0 ,0,24.9 ,0,24.4 ,0,22.5 ,0
2004/10/1,23:30,20.5 ,0,91.0 ,0,25.1 ,0,73.4 ,0,24.9 ,0,24.3 ,0,22.4 ,0
2004/10/1,23:45,20.4 ,0,91.0 ,0,24.9 ,0,73.6 ,0,24.9 ,0,24.3 ,0,22.5 ,0
2004/10/2,0:00,20.3 ,0,91.0 ,0,24.7 ,0,73.8 ,0,24.8 ,0,24.3 ,0,23.0 ,0
2004/10/2,0:15,20.5 ,0,90.0 ,0,24.6 ,0,74.0 ,0,24.8 ,0,24.2 ,0,22.3 ,0
2004/10/2,0:30,20.5 ,0,89.0 ,0,24.5 ,0,74.3 ,0,24.8 ,0,24.1 ,0,21.9 ,0
2004/10/2,0:45,20.3 ,0,89.0 ,0,24.4 ,0,74.7 ,0,24.9 ,0,24.0 ,0,21.8 ,0
2004/10/2,1:00,20.4 ,0,88.0 ,0,24.3 ,0,75.0 ,0,24.9 ,0,23.9 ,0,21.7 ,0
2004/10/2,1:15,20.4 ,0,88.0 ,0,24.2 ,0,75.3 ,0,24.9 ,0,23.8 ,0,21.6 ,0
2004/10/2,1:30,20.1 ,0,91.0 ,0,24.1 ,0,75.5 ,0,24.9 ,0,23.8 ,0,22.0 ,0
2004/10/2,1:45,20.5 ,0,88.0 ,0,24.0 ,0,75.8 ,0,24.9 ,0,23.7 ,0,22.7 ,0
2004/10/2,2:00,20.7 ,0,86.0 ,0,23.9 ,0,76.2 ,0,25.0 ,0,23.6 ,0,22.8 ,0
2004/10/2,2:15,20.7 ,0,86.0 ,0,23.9 ,0,76.4 ,0,25.0 ,0,23.5 ,0,22.9 ,0
2004/10/2,2:30,20.7 ,0,87.0 ,0,23.8 ,0,76.7 ,0,25.0 ,0,23.4 ,0,22.9 ,0
2004/10/2,2:45,20.7 ,0,87.0 ,0,23.8 ,0,76.9 ,0,25.0 ,0,23.4 ,0,22.9 ,0
2004/10/2,3:00,20.7 ,0,88.0 ,0,23.7 ,0,77.1 ,0,25.0 ,0,23.3 ,0,22.9 ,0
2004/10/2,3:15,20.4 ,0,91.0 ,0,23.7 ,0,77.3 ,0,25.0 ,0,23.2 ,0,22.8 ,0
2004/10/2,3:30,20.3 ,0,93.0 ,0,23.7 ,0,77.5 ,0,25.0 ,0,23.2 ,0,22.6 ,0
2004/10/2,3:45,20.3 ,0,94.0 ,0,23.6 ,0,77.6 ,0,25.0 ,0,23.2 ,0,22.9 ,0
2004/10/2,4:00,20.2 ,0,95.0 ,0,23.6 ,0,77.6 ,0,25.0 ,0,23.2 ,0,22.9 ,0
2004/10/2,4:15,20.3 ,0,95.0 ,0,23.6 ,0,77.5 ,0,25.0 ,0,23.2 ,0,22.9 ,0
2004/10/2,4:30,20.2 ,0,95.0 ,0,23.5 ,0,77.6 ,0,25.0 ,0,23.2 ,0,22.9 ,0
2004/10/2,4:45,20.2 ,0,94.0 ,0,23.5 ,0,77.6 ,0,25.0 ,0,23.2 ,0,22.9 ,0
2004/10/2,5:00,20.2 ,0,95.0 ,0,23.5 ,0,77.6 ,0,25.0 ,0,23.2 ,0,22.8 ,0
2004/10/2,5:15,20.1 ,0,96.0 ,0,23.4 ,0,77.6 ,0,25.0 ,0,23.2 ,0,22.7 ,0
2004/10/2,5:30,20.2 ,0,92.0 ,0,23.4 ,0,77.7 ,0,25.0 ,0,23.1 ,0,22.8 ,0
2004/10/2,5:45,20.6 ,0,76.0 ,0,23.3 ,0,77.8 ,0,25.0 ,0,23.1 ,0,22.7 ,0
2004/10/2,6:00,20.8 ,0,74.0 ,0,23.3 ,0,77.8 ,0,25.0 ,0,23.0 ,0,22.7 ,0
2004/10/2,6:15,20.5 ,0,74.0 ,0,23.3 ,0,77.8 ,0,25.0 ,0,23.0 ,0,22.6 ,0
2004/10/2,6:30,20.3 ,0,75.0 ,0,23.2 ,0,77.9 ,0,25.0 ,0,22.9 ,0,22.6 ,0
2004/10/2,6:45,20.6 ,0,74.0 ,0,23.2 ,0,77.9 ,0,24.9 ,0,22.9 ,0,22.6 ,0
2004/10/2,7:00,21.0 ,0,72.0 ,0,23.2 ,0,78.0 ,0,24.9 ,0,22.8 ,0,22.5 ,0
2004/10/2,7:15,20.9 ,0,72.0 ,0,23.1 ,0,78.0 ,0,24.9 ,0,22.8 ,0,22.4 ,0
2004/10/2,7:30,20.9 ,0,77.0 ,0,23.1 ,0,77.9 ,0,24.9 ,0,22.8 ,0,22.1 ,0
2004/10/2,7:45,20.6 ,0,81.0 ,0,23.0 ,0,77.7 ,0,24.9 ,0,22.7 ,0,22.0 ,0
2004/10/2,8:00,20.5 ,0,83.0 ,0,23.0 ,0,77.7 ,0,24.9 ,0,22.7 ,0,21.9 ,0
2004/10/2,8:15,20.0 ,0,84.0 ,0,23.2 ,0,77.7 ,0,24.9 ,0,22.7 ,0,21.9 ,0
2004/10/2,8:30,20.0 ,0,82.0 ,0,23.4 ,0,77.6 ,0,24.9 ,0,22.7 ,0,21.9 ,0
2004/10/2,8:45,20.0 ,0,80.0 ,0,23.4 ,0,77.0 ,0,24.9 ,0,22.7 ,0,21.9 ,0
2004/10/2,9:00,20.1 ,0,77.0 ,0,23.3 ,0,76.6 ,0,24.8 ,0,22.7 ,0,21.8 ,0
2004/10/2,9:15,20.1 ,0,76.0 ,0,23.4 ,0,75.8 ,0,24.8 ,0,22.9 ,0,22.0 ,0
2004/10/2,9:30,20.1 ,0,75.0 ,0,23.3 ,0,76.3 ,0,24.8 ,0,23.0 ,0,21.9 ,0
2004/10/2,9:45,20.2 ,0,74.0 ,0,23.0 ,0,76.9 ,0,24.8 ,0,22.9 ,0,21.7 ,0
2004/10/2,10:00,20.3 ,0,73.0 ,0,22.9 ,0,73.8 ,0,25.0 ,0,22.8 ,0,21.6 ,0
2004/10/2,10:15,20.5 ,0,71.0 ,0,22.7 ,0,72.1 ,0,25.0 ,0,22.7 ,0,21.5 ,0
2004/10/2,10:30,20.3 ,0,70.0 ,0,22.6 ,0,71.2 ,0,25.0 ,0,22.4 ,0,21.1 ,0
2004/10/2,10:45,20.2 ,0,71.0 ,0,22.5 ,0,71.7 ,0,24.8 ,0,22.0 ,0,21.1 ,0
2004/10/2,11:00,20.0 ,0,71.0 ,0,22.4 ,0,70.8 ,0,24.8 ,0,21.9 ,0,20.7 ,0
2004/10/2,11:15,19.8 ,0,72.0 ,0,22.6 ,0,70.6 ,0,24.8 ,0,21.8 ,0,20.6 ,0
2004/10/2,11:30,19.9 ,0,69.0 ,0,22.7 ,0,70.1 ,0,24.8 ,0,21.6 ,0,20.7 ,0
2004/10/2,11:45,19.9 ,0,68.0 ,0,22.9 ,0,69.7 ,0,24.7 ,0,21.5 ,0,20.5 ,0
2004/10/2,12:00,19.9 ,0,68.0 ,0,22.8 ,0,68.4 ,0,24.7 ,0,21.5 ,0,21.1 ,0
2004/10/2,12:15,20.0 ,0,68.0 ,0,22.7 ,0,69.7 ,0,24.7 ,0,21.7 ,0,21.5 ,0
2004/10/2,12:30,19.9 ,0,67.0 ,0,22.7 ,0,70.5 ,0,24.7 ,0,22.0 ,0,21.7 ,0
2004/10/2,12:45,19.8 ,0,67.0 ,0,22.8 ,0,71.2 ,0,24.6 ,0,22.0 ,0,21.8 ,0
2004/10/2,13:00,19.9 ,0,67.0 ,0,22.7 ,0,71.1 ,0,24.6 ,0,21.9 ,0,22.1 ,0
2004/10/2,13:15,19.8 ,0,67.0 ,0,22.8 ,0,71.0 ,0,25.0 ,0,21.9 ,0,22.2 ,0
2004/10/2,13:30,19.8 ,0,67.0 ,0,22.8 ,0,70.5 ,0,24.9 ,0,21.9 ,0,22.1 ,0
2004/10/2,13:45,19.8 ,0,67.0 ,0,22.7 ,0,71.0 ,0,24.9 ,0,21.8 ,0,22.1 ,0
2004/10/2,14:00,19.8 ,0,67.0 ,0,22.6 ,0,70.8 ,0,24.9 ,0,21.9 ,0,22.1 ,0
2004/10/2,14:15,19.8 ,0,67.0 ,0,22.6 ,0,71.1 ,0,24.9 ,0,21.9 ,0,22.1 ,0
2004/10/2,14:30,19.7 ,0,67.0 ,0,22.5 ,0,71.5 ,0,24.8 ,0,21.8 ,0,22.1 ,0
2004/10/2,14:45,19.8 ,0,67.0 ,0,22.4 ,0,71.7 ,0,24.8 ,0,21.8 ,0,22.0 ,0
2004/10/2,15:00,19.7 ,0,67.0 ,0,22.3 ,0,71.9 ,0,24.8 ,0,21.7 ,0,22.0 ,0
2004/10/2,15:15,19.7 ,0,68.0 ,0,22.2 ,0,72.0 ,0,24.7 ,0,21.7 ,0,22.0 ,0
2004/10/2,15:30,19.8 ,0,67.0 ,0,22.2 ,0,72.1 ,0,24.7 ,0,21.6 ,0,21.9 ,0
2004/10/2,15:45,19.9 ,0,67.0 ,0,22.1 ,0,72.2 ,0,24.7 ,0,21.6 ,0,21.9 ,0
2004/10/2,16:00,19.9 ,0,69.0 ,0,22.1 ,0,72.4 ,0,24.7 ,0,21.5 ,0,21.9 ,0
2004/10/2,16:15,19.9 ,0,70.0 ,0,22.0 ,0,72.6 ,0,24.6 ,0,21.5 ,0,21.9 ,0
2004/10/2,16:30,19.9 ,0,70.0 ,0,21.9 ,0,72.8 ,0,24.6 ,0,21.4 ,0,21.8 ,0
2004/10/2,16:45,19.8 ,0,69.0 ,0,21.9 ,0,72.9 ,0,24.6 ,0,21.4 ,0,21.8 ,0
2004/10/2,17:00,19.9 ,0,70.0 ,0,21.8 ,0,73.1 ,0,24.6 ,0,21.4 ,0,21.8 ,0
2004/10/2,17:15,19.5 ,0,74.0 ,0,21.8 ,0,73.1 ,0,24.5 ,0,21.4 ,0,21.8 ,0
2004/10/2,17:30,19.5 ,0,74.0 ,0,21.8 ,0,73.2 ,0,24.5 ,0,21.3 ,0,21.7 ,0
2004/10/2,17:45,19.7 ,0,71.0 ,0,21.7 ,0,73.2 ,0,24.5 ,0,21.3 ,0,21.7 ,0
2004/10/2,18:00,19.8 ,0,70.0 ,0,21.7 ,0,73.4 ,0,24.5 ,0,21.3 ,0,21.7 ,0
2004/10/2,18:15,19.9 ,0,66.0 ,0,21.6 ,0,73.6 ,0,24.4 ,0,21.3 ,0,21.7 ,0
2004/10/2,18:30,20.0 ,0,64.0 ,0,21.6 ,0,73.7 ,0,24.4 ,0,21.3 ,0,21.7 ,0
2004/10/2,18:45,20.0 ,0,67.0 ,0,21.6 ,0,73.7 ,0,24.4 ,0,21.2 ,0,21.6 ,0
2004/10/2,19:00,19.8 ,0,67.0 ,0,21.9 ,0,72.1 ,0,24.3 ,0,21.2 ,0,21.6 ,0
2004/10/2,19:15,19.9 ,0,65.0 ,0,21.7 ,0,73.0 ,0,24.3 ,0,21.2 ,0,21.6 ,0
2004/10/2,19:30,19.9 ,0,66.0 ,0,21.7 ,0,71.6 ,0,24.3 ,0,21.1 ,0,21.6 ,0
2004/10/2,19:45,19.9 ,0,66.0 ,0,21.6 ,0,72.1 ,0,24.3 ,0,21.0 ,0,21.6 ,0
2004/10/2,20:00,19.9 ,0,64.0 ,0,21.6 ,0,71.7 ,0,24.2 ,0,21.0 ,0,21.6 ,0
2004/10/2,20:15,20.0 ,0,63.0 ,0,21.6 ,0,72.5 ,0,24.2 ,0,21.0 ,0,21.6 ,0
2004/10/2,20:30,19.9 ,0,62.0 ,0,21.6 ,0,73.2 ,0,24.2 ,0,21.0 ,0,21.5 ,0
2004/10/2,20:45,19.9 ,0,60.0 ,0,21.6 ,0,73.5 ,0,24.0 ,0,21.0 ,0,21.5 ,0
2004/10/2,21:00,19.9 ,0,60.0 ,0,21.6 ,0,73.9 ,0,24.0 ,0,21.1 ,0,21.5 ,0
2004/10/2,21:15,19.7 ,0,64.0 ,0,21.6 ,0,74.0 ,0,24.0 ,0,21.1 ,0,21.5 ,0
2004/10/2,21:30,19.5 ,0,65.0 ,0,21.7 ,0,74.2 ,0,24.0 ,0,21.1 ,0,21.5 ,0
2004/10/2,21:45,19.4 ,0,66.0 ,0,21.7 ,0,74.1 ,0,24.1 ,0,21.2 ,0,21.5 ,0
2004/10/2,22:00,19.3 ,0,67.0 ,0,21.7 ,0,74.2 ,0,24.1 ,0,21.2 ,0,21.5 ,0
2004/10/2,22:15,19.3 ,0,67.0 ,0,21.7 ,0,74.1 ,0,24.1 ,0,21.3 ,0,21.5 ,0
2004/10/2,22:30,19.1 ,0,69.0 ,0,21.7 ,0,73.3 ,0,24.0 ,0,21.3 ,0,21.5 ,0
2004/10/2,22:45,19.0 ,0,71.0 ,0,21.6 ,0,73.9 ,0,24.0 ,0,21.3 ,0,21.5 ,0
2004/10/2,23:00,19.1 ,0,73.0 ,0,21.6 ,0,74.6 ,0,24.0 ,0,21.4 ,0,21.5 ,0
2004/10/2,23:15,19.2 ,0,73.0 ,0,21.6 ,0,75.8 ,0,24.0 ,0,21.4 ,0,21.5 ,0
2004/10/2,23:30,19.2 ,0,75.0 ,0,21.6 ,0,77.3 ,0,24.0 ,0,21.3 ,0,21.5 ,0
2004/10/2,23:45,18.6 ,0,79.0 ,0,21.6 ,0,78.3 ,0,24.0 ,0,21.2 ,0,21.4 ,0
2004/10/3,0:00,18.2 ,0,83.0 ,0,21.6 ,0,78.6 ,0,24.1 ,0,21.2 ,0,21.4 ,0
2004/10/3,0:15,18.0 ,0,85.0 ,0,23.4 ,0,72.7 ,0,24.1 ,0,21.2 ,0,21.7 ,0
2004/10/3,0:30,17.6 ,0,86.0 ,0,23.1 ,0,69.6 ,0,24.0 ,0,21.3 ,0,21.9 ,0
2004/10/3,0:45,17.3 ,0,88.0 ,0,22.6 ,0,70.5 ,0,24.0 ,0,21.3 ,0,22.1 ,0
2004/10/3,1:00,17.4 ,0,87.0 ,0,22.2 ,0,71.3 ,0,24.0 ,0,21.2 ,0,22.0 ,0
2004/10/3,1:15,17.0 ,0,88.0 ,0,21.9 ,0,72.3 ,0,24.0 ,0,21.2 ,0,21.6 ,0
2004/10/3,1:30,17.0 ,0,89.0 ,0,21.6 ,0,73.0 ,0,23.9 ,0,21.2 ,0,21.5 ,0
2004/10/3,1:45,16.9 ,0,91.0 ,0,21.4 ,0,73.9 ,0,23.9 ,0,21.1 ,0,21.4 ,0
2004/10/3,2:00,16.7 ,0,92.0 ,0,21.1 ,0,74.8 ,0,23.9 ,0,21.0 ,0,21.2 ,0
2004/10/3,2:15,16.5 ,0,94.0 ,0,20.9 ,0,75.7 ,0,23.9 ,0,20.8 ,0,20.9 ,0
2004/10/3,2:30,16.3 ,0,95.0 ,0,20.7 ,0,76.6 ,0,23.9 ,0,20.6 ,0,21.0 ,0
2004/10/3,2:45,16.2 ,0,96.0 ,0,20.5 ,0,77.3 ,0,23.9 ,0,20.5 ,0,20.8 ,0
2004/10/3,3:00,16.0 ,0,97.0 ,0,20.4 ,0,77.9 ,0,23.9 ,0,20.4 ,0,20.7 ,0
2004/10/3,3:15,16.0 ,0,99.0 ,0,20.2 ,0,78.4 ,0,23.8 ,0,20.3 ,0,20.5 ,0
2004/10/3,3:30,16.2 ,0,99.0 ,0,20.0 ,0,78.8 ,0,23.8 ,0,20.2 ,0,20.1 ,0
2004/10/3,3:45,16.2 ,0,99.0 ,0,19.9 ,0,79.3 ,0,23.8 ,0,20.1 ,0,20.2 ,0
2004/10/3,4:00,16.3 ,0,98.0 ,0,19.8 ,0,79.9 ,0,23.8 ,0,20.0 ,0,20.4 ,0
2004/10/3,4:15,16.5 ,0,98.0 ,0,19.6 ,0,80.1 ,0,23.7 ,0,19.9 ,0,20.2 ,0
2004/10/3,4:30,16.6 ,0,98.0 ,0,19.5 ,0,80.5 ,0,23.7 ,0,19.9 ,0,19.8 ,0
2004/10/3,4:45,16.6 ,0,98.0 ,0,19.5 ,0,81.1 ,0,23.7 ,0,19.8 ,0,19.6 ,0
2004/10/3,5:00,16.6 ,0,99.0 ,0,19.4 ,0,81.0 ,0,23.7 ,0,19.7 ,0,19.5 ,0
2004/10/3,5:15,16.5 ,0,99.0 ,0,19.4 ,0,81.1 ,0,23.7 ,0,19.6 ,0,19.8 ,0
2004/10/3,5:30,16.7 ,0,99.0 ,0,19.4 ,0,81.0 ,0,23.6 ,0,19.5 ,0,19.8 ,0
2004/10/3,5:45,17.1 ,0,99.0 ,0,19.4 ,0,80.8 ,0,23.6 ,0,19.5 ,0,19.5 ,0
2004/10/3,6:00,17.5 ,0,97.0 ,0,19.4 ,0,80.8 ,0,23.6 ,0,19.5 ,0,19.5 ,0
2004/10/3,6:15,17.6 ,0,94.0 ,0,19.4 ,0,80.8 ,0,23.6 ,0,19.5 ,0,19.7 ,0
2004/10/3,6:30,18.0 ,0,91.0 ,0,19.3 ,0,80.6 ,0,23.5 ,0,19.5 ,0,19.8 ,0
2004/10/3,6:45,18.3 ,0,88.0 ,0,19.3 ,0,80.8 ,0,23.5 ,0,19.5 ,0,19.7 ,0
2004/10/3,7:00,19.4 ,0,85.0 ,0,19.4 ,0,80.7 ,0,23.5 ,0,19.5 ,0,19.6 ,0
2004/10/3,7:15,19.8 ,0,83.0 ,0,19.5 ,0,80.4 ,0,23.5 ,0,19.5 ,0,19.7 ,0
2004/10/3,7:30,20.8 ,0,79.0 ,0,19.7 ,0,79.9 ,0,23.4 ,0,19.4 ,0,19.6 ,0
2004/10/3,7:45,21.0 ,0,77.0 ,0,19.9 ,0,79.2 ,0,23.4 ,0,19.5 ,0,19.7 ,0
2004/10/3,8:00,22.2 ,0,74.0 ,0,20.3 ,0,79.1 ,0,23.4 ,0,19.5 ,0,19.8 ,0
2004/10/3,8:15,23.2 ,0,68.0 ,0,21.4 ,0,76.2 ,0,23.4 ,0,19.7 ,0,19.9 ,0
2004/10/3,8:30,23.3 ,0,65.0 ,0,22.3 ,0,72.5 ,0,23.4 ,0,19.8 ,0,20.0 ,0
2004/10/3,8:45,24.2 ,0,61.0 ,0,24.8 ,0,65.5 ,0,24.3 ,0,20.0 ,0,20.0 ,0
2004/10/3,9:00,23.8 ,0,54.0 ,0,25.8 ,0,59.2 ,0,24.3 ,0,20.3 ,0,20.4 ,0
2004/10/3,9:15,24.5 ,0,50.0 ,0,27.8 ,0,52.5 ,0,24.6 ,0,20.6 ,0,19.9 ,0
2004/10/3,9:30,24.6 ,0,51.0 ,0,28.3 ,0,51.2 ,0,24.5 ,0,20.9 ,0,20.7 ,0
2004/10/3,9:45,25.1 ,0,49.0 ,0,28.2 ,0,51.9 ,0,24.5 ,0,21.2 ,0,21.0 ,0
2004/10/3,10:00,25.2 ,0,47.0 ,0,27.8 ,0,53.6 ,0,24.5 ,0,21.4 ,0,21.2 ,0
2004/10/3,10:15,25.1 ,0,47.0 ,0,28.5 ,0,51.9 ,0,24.4 ,0,21.6 ,0,21.7 ,0
2004/10/3,10:30,25.4 ,0,45.0 ,0,28.2 ,0,50.8 ,0,24.1 ,0,21.9 ,0,22.0 ,0
2004/10/3,10:45,24.3 ,0,46.0 ,0,28.4 ,0,50.5 ,0,24.0 ,0,22.0 ,0,22.3 ,0
2004/10/3,11:00,23.6 ,0,50.0 ,0,28.4 ,0,50.2 ,0,24.0 ,0,22.4 ,0,22.5 ,0
2004/10/3,11:15,24.3 ,0,47.0 ,0,28.4 ,0,49.7 ,0,24.0 ,0,22.8 ,0,22.5 ,0
2004/10/3,11:30,24.0 ,0,45.0 ,0,28.2 ,0,51.1 ,0,24.1 ,0,23.1 ,0,22.9 ,0
2004/10/3,11:45,24.1 ,0,43.0 ,0,28.2 ,0,52.0 ,0,24.1 ,0,23.3 ,0,23.0 ,0
2004/10/3,12:00,24.1 ,0,42.0 ,0,28.2 ,0,52.3 ,0,24.0 ,0,23.4 ,0,23.1 ,0
2004/10/3,12:15,23.8 ,0,54.0 ,0,27.5 ,0,52.8 ,0,24.0 ,0,23.6 ,0,23.4 ,0
2004/10/3,12:30,23.9 ,0,53.0 ,0,27.4 ,0,54.0 ,0,24.0 ,0,23.9 ,0,23.6 ,0
2004/10/3,12:45,23.7 ,0,53.0 ,0,27.6 ,0,53.2 ,0,24.0 ,0,24.0 ,0,23.8 ,0
2004/10/3,13:00,23.4 ,0,57.0 ,0,27.7 ,0,52.4 ,0,24.0 ,0,24.1 ,0,23.7 ,0
2004/10/3,13:15,23.5 ,0,59.0 ,0,27.7 ,0,53.6 ,0,24.0 ,0,24.0 ,0,23.6 ,0
2004/10/3,13:30,23.7 ,0,58.0 ,0,27.8 ,0,52.4 ,0,24.0 ,0,24.1 ,0,23.7 ,0
2004/10/3,13:45,23.6 ,0,59.0 ,0,27.8 ,0,54.4 ,0,24.0 ,0,24.1 ,0,23.9 ,0
2004/10/3,14:00,23.5 ,0,60.0 ,0,27.7 ,0,55.3 ,0,24.0 ,0,24.2 ,0,24.1 ,0
2004/10/3,14:15,23.4 ,0,60.0 ,0,27.9 ,0,55.2 ,0,24.0 ,0,24.4 ,0,24.3 ,0
2004/10/3,14:30,23.1 ,0,60.0 ,0,27.8 ,0,56.1 ,0,23.9 ,0,24.4 ,0,24.5 ,0
2004/10/3,14:45,23.1 ,0,61.0 ,0,27.8 ,0,56.7 ,0,24.0 ,0,24.5 ,0,24.5 ,0
2004/10/3,15:00,23.2 ,0,62.0 ,0,27.9 ,0,57.0 ,0,24.0 ,0,24.5 ,0,24.5 ,0
2004/10/3,15:15,23.1 ,0,61.0 ,0,27.7 ,0,57.4 ,0,24.0 ,0,24.5 ,0,24.6 ,0
2004/10/3,15:30,23.1 ,0,61.0 ,0,27.7 ,0,57.3 ,0,24.0 ,0,24.5 ,0,24.7 ,0
2004/10/3,15:45,23.3 ,0,61.0 ,0,27.7 ,0,57.7 ,0,24.0 ,0,24.6 ,0,24.8 ,0
2004/10/3,16:00,23.0 ,0,61.0 ,0,27.4 ,0,58.0 ,0,24.0 ,0,24.6 ,0,24.8 ,0
2004/10/3,16:15,22.8 ,0,61.0 ,0,27.4 ,0,58.3 ,0,24.0 ,0,24.6 ,0,24.7 ,0
2004/10/3,16:30,22.7 ,0,62.0 ,0,27.2 ,0,58.7 ,0,24.0 ,0,24.6 ,0,24.7 ,0
2004/10/3,16:45,22.3 ,0,62.0 ,0,27.0 ,0,59.4 ,0,24.1 ,0,24.6 ,0,24.3 ,0
2004/10/3,17:00,22.1 ,0,63.0 ,0,26.8 ,0,59.9 ,0,24.1 ,0,24.5 ,0,24.2 ,0
2004/10/3,17:15,22.0 ,0,64.0 ,0,26.8 ,0,60.0 ,0,24.1 ,0,24.4 ,0,24.1 ,0
2004/10/3,17:30,21.9 ,0,64.0 ,0,26.3 ,0,61.3 ,0,24.1 ,0,24.4 ,0,24.2 ,0
2004/10/3,17:45,21.8 ,0,64.0 ,0,26.1 ,0,61.4 ,0,24.1 ,0,24.4 ,0,24.1 ,0
2004/10/3,18:00,21.6 ,0,64.0 ,0,25.9 ,0,62.0 ,0,24.1 ,0,24.5 ,0,24.2 ,0
2004/10/3,18:15,21.5 ,0,65.0 ,0,25.6 ,0,62.9 ,0,24.2 ,0,24.4 ,0,23.9 ,0
2004/10/3,18:30,21.4 ,0,66.0 ,0,25.2 ,0,63.7 ,0,24.2 ,0,24.2 ,0,23.6 ,0
2004/10/3,18:45,21.2 ,0,67.0 ,0,25.0 ,0,64.5 ,0,24.2 ,0,24.0 ,0,23.5 ,0
2004/10/3,19:00,21.0 ,0,66.0 ,0,24.8 ,0,65.2 ,0,24.2 ,0,23.8 ,0,23.2 ,0
2004/10/3,19:15,20.8 ,0,67.0 ,0,24.7 ,0,65.6 ,0,24.2 ,0,23.6 ,0,23.1 ,0
2004/10/3,19:30,20.7 ,0,64.0 ,0,24.6 ,0,66.3 ,0,24.3 ,0,23.5 ,0,22.9 ,0
2004/10/3,19:45,20.6 ,0,65.0 ,0,24.5 ,0,68.2 ,0,24.7 ,0,23.4 ,0,22.8 ,0
2004/10/3,20:00,20.5 ,0,65.0 ,0,24.4 ,0,68.6 ,0,24.7 ,0,23.3 ,0,22.6 ,0
2004/10/3,20:15,20.6 ,0,62.0 ,0,24.4 ,0,67.8 ,0,24.8 ,0,23.2 ,0,22.5 ,0
2004/10/3,20:30,20.7 ,0,62.0 ,0,24.3 ,0,67.9 ,0,24.8 ,0,23.2 ,0,22.4 ,0
2004/10/3,20:45,20.6 ,0,62.0 ,0,24.2 ,0,68.6 ,0,24.8 ,0,23.2 ,0,22.3 ,0
2004/10/3,21:00,20.6 ,0,62.0 ,0,24.1 ,0,68.4 ,0,24.8 ,0,23.1 ,0,22.1 ,0
2004/10/3,21:15,20.5 ,0,63.0 ,0,23.9 ,0,66.6 ,0,24.8 ,0,23.0 ,0,22.0 ,0
2004/10/3,21:30,20.5 ,0,62.0 ,0,23.8 ,0,67.4 ,0,24.8 ,0,22.9 ,0,21.9 ,0
2004/10/3,21:45,20.4 ,0,64.0 ,0,23.8 ,0,69.2 ,0,24.8 ,0,22.8 ,0,21.8 ,0
2004/10/3,22:00,20.2 ,0,64.0 ,0,23.7 ,0,69.5 ,0,24.8 ,0,22.7 ,0,21.6 ,0
2004/10/3,22:15,20.1 ,0,64.0 ,0,23.7 ,0,69.0 ,0,24.8 ,0,22.5 ,0,21.5 ,0
2004/10/3,22:30,19.9 ,0,65.0 ,0,23.6 ,0,68.9 ,0,24.8 ,0,22.5 ,0,21.5 ,0
2004/10/3,22:45,19.9 ,0,65.0 ,0,23.5 ,0,68.7 ,0,24.8 ,0,22.5 ,0,21.5 ,0
2004/10/3,23:00,19.8 ,0,61.0 ,0,23.4 ,0,68.8 ,0,24.8 ,0,22.5 ,0,21.4 ,0
2004/10/3,23:15,19.8 ,0,59.0 ,0,23.3 ,0,68.5 ,0,24.8 ,0,22.5 ,0,21.3 ,0
2004/10/3,23:30,19.8 ,0,59.0 ,0,23.2 ,0,69.3 ,0,24.8 ,0,22.4 ,0,21.3 ,0
2004/10/3,23:45,19.6 ,0,59.0 ,0,23.1 ,0,70.0 ,0,24.3 ,0,22.3 ,0,21.2 ,0
2004/10/4,0:00,19.5 ,0,59.0 ,0,23.0 ,0,70.5 ,0,24.4 ,0,22.2 ,0,21.1 ,0
2004/10/4,0:15,19.5 ,0,57.0 ,0,22.8 ,0,70.6 ,0,24.4 ,0,22.1 ,0,21.1 ,0
2004/10/4,0:30,19.1 ,0,60.0 ,0,22.7 ,0,70.2 ,0,24.4 ,0,22.0 ,0,21.0 ,0
2004/10/4,0:45,18.7 ,0,62.0 ,0,22.6 ,0,70.0 ,0,24.4 ,0,21.9 ,0,20.9 ,0
2004/10/4,1:00,18.9 ,0,61.0 ,0,22.5 ,0,69.8 ,0,24.4 ,0,21.8 ,0,20.8 ,0
2004/10/4,1:15,18.6 ,0,63.0 ,0,22.3 ,0,69.5 ,0,24.4 ,0,21.7 ,0,20.7 ,0
2004/10/4,1:30,18.6 ,0,64.0 ,0,22.2 ,0,69.6 ,0,24.4 ,0,21.6 ,0,20.7 ,0
2004/10/4,1:45,18.8 ,0,64.0 ,0,22.1 ,0,69.8 ,0,24.4 ,0,21.5 ,0,20.6 ,0
2004/10/4,2:00,18.7 ,0,65.0 ,0,22.0 ,0,70.3 ,0,24.4 ,0,21.4 ,0,20.6 ,0
2004/10/4,2:15,18.6 ,0,66.0 ,0,21.8 ,0,70.7 ,0,24.4 ,0,21.4 ,0,20.5 ,0
2004/10/4,2:30,18.7 ,0,66.0 ,0,21.7 ,0,71.0 ,0,24.4 ,0,21.3 ,0,20.7 ,0
2004/10/4,2:45,18.6 ,0,68.0 ,0,21.6 ,0,71.4 ,0,24.4 ,0,21.2 ,0,20.8 ,0
2004/10/4,3:00,18.4 ,0,69.0 ,0,21.6 ,0,71.6 ,0,24.4 ,0,21.1 ,0,20.7 ,0
2004/10/4,3:15,18.4 ,0,70.0 ,0,21.5 ,0,71.6 ,0,24.4 ,0,21.0 ,0,20.5 ,0
2004/10/4,3:30,18.3 ,0,71.0 ,0,21.4 ,0,71.7 ,0,24.4 ,0,20.9 ,0,20.6 ,0
2004/10/4,3:45,18.2 ,0,73.0 ,0,21.4 ,0,72.0 ,0,24.4 ,0,20.9 ,0,20.4 ,0
2004/10/4,4:00,18.1 ,0,74.0 ,0,21.3 ,0,72.1 ,0,24.4 ,0,20.9 ,0,20.4 ,0
2004/10/4,4:15,18.2 ,0,74.0 ,0,21.2 ,0,72.2 ,0,24.3 ,0,20.8 ,0,20.3 ,0
2004/10/4,4:30,18.2 ,0,74.0 ,0,21.2 ,0,72.5 ,0,24.3 ,0,20.8 ,0,20.2 ,0
2004/10/4,4:45,18.2 ,0,75.0 ,0,21.1 ,0,72.7 ,0,24.3 ,0,20.7 ,0,20.2 ,0
2004/10/4,5:00,18.3 ,0,75.0 ,0,21.1 ,0,72.7 ,0,24.3 ,0,20.7 ,0,20.2 ,0
2004/10/4,5:15,18.2 ,0,75.0 ,0,21.0 ,0,72.9 ,0,24.3 ,0,20.7 ,0,20.2 ,0
2004/10/4,5:30,18.3 ,0,76.0 ,0,20.9 ,0,73.3 ,0,24.3 ,0,20.7 ,0,20.1 ,0
2004/10/4,5:45,18.4 ,0,77.0 ,0,20.8 ,0,73.6 ,0,24.3 ,0,20.6 ,0,20.1 ,0
2004/10/4,6:00,18.7 ,0,76.0 ,0,20.7 ,0,73.7 ,0,24.3 ,0,20.5 ,0,20.1 ,0
2004/10/4,6:15,20.0 ,0,73.0 ,0,20.7 ,0,73.8 ,0,24.3 ,0,20.4 ,0,20.1 ,0
2004/10/4,6:30,21.1 ,0,67.0 ,0,20.6 ,0,74.0 ,0,24.3 ,0,20.3 ,0,19.8 ,0
2004/10/4,6:45,21.4 ,0,62.0 ,0,20.7 ,0,74.0 ,0,24.2 ,0,20.3 ,0,19.8 ,0
2004/10/4,7:00,21.8 ,0,61.0 ,0,20.8 ,0,73.8 ,0,24.2 ,0,20.3 ,0,19.8 ,0
2004/10/4,7:15,22.3 ,0,59.0 ,0,21.3 ,0,72.9 ,0,24.2 ,0,20.2 ,0,19.7 ,0
2004/10/4,7:30,22.4 ,0,58.0 ,0,22.4 ,0,69.9 ,0,24.2 ,0,20.2 ,0,19.6 ,0
2004/10/4,7:45,23.0 ,0,56.0 ,0,24.2 ,0,61.3 ,0,24.2 ,0,20.2 ,0,19.5 ,0
2004/10/4,8:00,23.0 ,0,56.0 ,0,27.6 ,2,50.3 ,0,24.8 ,0,20.3 ,0,20.0 ,0
2004/10/4,8:15,22.8 ,0,57.0 ,0,29.9 ,2,42.7 ,0,24.7 ,0,20.5 ,0,20.2 ,0
2004/10/4,8:30,22.8 ,0,59.0 ,0,32.4 ,2,37.9 ,0,24.7 ,0,20.7 ,0,20.5 ,0
2004/10/4,8:45,22.4 ,0,59.0 ,0,32.7 ,2,37.6 ,0,24.6 ,0,21.0 ,0,20.8 ,0
2004/10/4,9:00,22.8 ,0,57.0 ,0,35.9 ,2,31.6 ,0,24.6 ,0,21.2 ,0,21.3 ,0
2004/10/4,9:15,22.8 ,0,57.0 ,0,37.1 ,2,29.8 ,0,24.6 ,0,21.5 ,0,21.4 ,0
2004/10/4,9:30,23.1 ,0,56.0 ,0,34.2 ,2,34.8 ,0,24.5 ,0,21.8 ,0,21.5 ,0
2004/10/4,9:45,24.2 ,0,53.0 ,0,31.1 ,2,41.1 ,0,24.5 ,0,22.1 ,0,21.8 ,0